Location: B�rgermoos
(47.6500°N, 9.0667°E)
Time: 18:29:21
(UTC+00:00)

Tiros 1 - Pass Details

Date: 07 August 2021
Orbit: 630 x 663 km, 48.4° (Epoch: 20 September)

Event Time Altitude Azimuth Distance (km) Brightness Sun altitude
Rises 15:32:32 0° 234° (SW) 2,986 11.5 31.5°
Reaches altitude 10° 15:34:55 10° 230° (SW) 2,074 10.8 31.1°
Maximum altitude 15:39:34 52° 154° (SSE) 818 8.0 30.3°
Drops below altitude 10° 15:44:13 10° 79° (ENE) 2,069 9.3 29.6°
Sets 15:46:35 0° 74° (ENE) 2,978 10.0 29.2°
